KE9LZ-9 Weather Reports


time (UTC)temp
F
wind
direction
speed
knots
gust
knots
rain 1hr
in
rain 24hr
in
rain mn
in
humidity
%
barometer
mb
20260503014004 46 10 0.9 4.3 0.00 0.00 0.00 66 1011.2
20260503013003 46 34 0.9 4.3 0.00 0.00 0.00 64 1011.2
20260503012004 47 85 2.6 5.2 0.00 0.00 0.00 63 1011.1
20260503011004 48 44 0.0 4.3 0.00 0.00 0.00 62 1011.3
20260503010003 49 42 1.7 4.3 0.00 0.00 0.00 58 1011.3
20260503005004 50 90 1.7 6.1 0.00 0.00 0.00 55 1011.2
20260503003004 53 38 1.7 4.3 0.00 0.00 0.00 46 1011.3
20260503002004 56 70 0.9 2.6 0.00 0.00 0.00 30 1011.0
20260503001003 57 318 1.7 6.1 0.00 0.00 0.00 28 1011.0
20260503000004 58 341 2.6 7.8 0.00 0.00 0.00 28 1011.2
20260502235004 59 325 4.3 6.1 0.00 0.00 0.00 27 1011.1
20260502234004 59 323 0.9 6.1 0.00 0.00 0.00 28 1011.1
20260502233004 59 287 1.7 5.2 0.00 0.00 0.00 27 1011.2
20260502232003 60 265 2.6 7.0 0.00 0.00 0.00 25 1011.3
20260502231004 61 351 2.6 7.8 0.00 0.00 0.00 26 1011.4
20260502224003 59 268 0.9 6.1 0.00 0.00 0.00 27 1011.7
20260502223004 58 0 1.7 7.0 0.00 0.00 0.00 28 1011.7
20260502222003 60 295 3.5 10.4 0.00 0.00 0.00 27 1011.8
20260502221004 59 264 4.3 10.4 0.00 0.00 0.00 27 1012.0
20260502215004 60 316 4.3 7.0 0.00 0.00 0.00 28 1011.9
20260502214003 58 262 0.9 6.1 0.00 0.00 0.00 30 1012.0
20260502212004 59 245 1.7 5.2 0.00 0.00 0.00 27 1012.1
20260502211004 57 13 0.9 5.2 0.00 0.00 0.00 29 1012.4
20260502210004 57 279 2.6 6.1 0.00 0.00 0.00 28 1012.6
20260502205004 57 303 4.3 8.7 0.00 0.00 0.00 29 1012.7
20260502204003 60 263 3.5 8.7 0.00 0.00 0.00 26 1012.8
20260502203003 58 320 5.2 11.3 0.00 0.00 0.00 29 1013.2
20260502202004 58 332 5.2 10.4 0.00 0.00 0.00 28 1013.1
20260502201004 57 301 3.5 11.3 0.00 0.00 0.00 29 1013.4
20260502200003 58 260 5.2 14.8 0.00 0.00 0.00 28 1013.4
20260502193004 56 318 4.3 11.3 0.00 0.00 0.00 30 1014.0
20260502192004 58 199 0.9 10.4 0.00 0.00 0.00 28 1014.2
20260502191004 55 328 1.7 10.4 0.00 0.00 0.00 31 1014.3
20260502190004 57 264 1.7 10.4 0.00 0.00 0.00 31 1014.4
20260502185004 56 255 2.6 12.2 0.00 0.00 0.00 31 1014.6
20260502184003 54 315 1.7 12.2 0.00 0.00 0.00 34 1014.8
20260502182004 56 130 1.7 6.1 0.00 0.00 0.00 32 1015.0
20260502181003 53 274 2.6 10.4 0.00 0.00 0.00 32 1015.3
20260502164004 52 181 1.7 8.7 0.00 0.00 0.00 36 1016.2
20260502163004 50 302 2.6 7.8 0.00 0.00 0.00 35 1016.8
20260502162003 51 283 3.5 8.7 0.00 0.00 0.00 36 1016.4
20260502161003 51 306 5.2 11.3 0.00 0.00 0.00 35 1016.9
20260502152005 48 346 2.6 10.4 0.00 0.00 0.00 39 1017.2
20260502151004 48 275 5.2 8.7 0.00 0.00 0.00 40 1017.4
20260502122004 28 299 0.9 2.6 0.00 0.00 0.00 87 1018.8
20260502121004 26 281 0.9 1.7 0.00 0.00 0.00 93 1018.8
20260502115004 23 261 0.9 1.7 0.00 0.00 0.00 95 1018.8
20260502114004 22 298 0.9 1.7 0.00 0.00 0.00 95 1018.7
20260502113004 21 305 0.9 1.7 0.00 0.00 0.00 96 1018.7
20260502112004 21 320 0.9 1.7 0.00 0.00 0.00 96 1018.7
20260502111004 21 338 0.9 1.7 0.00 0.00 0.00 96 1018.6
20260502104004 20 320 0.9 1.7 0.00 0.00 0.00 96 1018.7
20260502103004 20 308 0.9 1.7 0.00 0.00 0.00 96 1018.8
20260502102003 20 356 0.9 1.7 0.00 0.00 0.00 96 1018.6
20260502101004 21 342 0.9 0.9 0.00 0.00 0.00 96 1018.5
20260502091004 21 331 0.0 0.9 0.00 0.00 0.00 95 1018.5
20260502071003 24 299 0.9 0.9 0.00 0.00 0.00 93 1018.3
20260502070004 24 323 0.9 0.9 0.00 0.00 0.00 93 1018.5
20260502065004 24 305 0.0 0.9 0.00 0.00 0.00 94 1018.6
20260502064004 24 0 0.0 0.9 0.00 0.00 0.00 93 1018.7
20260502063004 24 326 0.0 0.9 0.00 0.00 0.00 93 1018.7
20260502062004 24 330 0.9 1.7 0.00 0.00 0.00 93 1018.7
20260502061004 24 355 0.0 0.9 0.00 0.00 0.00 93 1018.9
20260502060003 25 332 0.9 0.9 0.00 0.00 0.00 93 1018.6
20260502055004 25 345 0.0 0.9 0.00 0.00 0.00 94 1018.6
20260502054004 25 319 0.0 0.9 0.00 0.00 0.00 93 1018.6
20260502053004 25 336 0.0 1.7 0.00 0.00 0.00 93 1018.6
20260502052004 26 340 0.9 0.9 0.00 0.00 0.00 93 1018.5
20260502050003 26 341 0.9 1.7 0.00 0.00 0.00 92 1018.5
20260502045003 26 308 0.9 1.7 0.00 0.00 0.00 91 1018.4
20260502044004 26 316 0.0 0.9 0.00 0.00 0.00 91 1018.6
20260502043004 26 299 0.9 0.9 0.00 0.00 0.00 91 1018.3
20260502042004 26 296 0.9 0.9 0.00 0.00 0.00 91 1018.6
20260502041003 26 315 0.0 0.9 0.00 0.00 0.00 91 1018.3
20260502040004 26 346 0.9 1.7 0.00 0.00 0.00 90 1018.6
20260502035003 27 341 0.0 0.9 0.00 0.00 0.00 90 1018.5
20260502034004 27 309 0.0 0.9 0.00 0.00 0.00 89 1018.4
20260502032003 27 327 0.9 0.9 0.00 0.00 0.00 88 1018.6
20260502031004 27 312 0.0 0.9 0.00 0.00 0.00 86 1018.5
20260502025003 28 318 0.0 0.9 0.00 0.00 0.00 84 1018.4
20260502024003 29 358 0.0 0.9 0.00 0.00 0.00 83 1018.5
20260502023004 29 332 0.9 0.9 0.00 0.00 0.00 82 1018.3
20260502022004 30 358 0.0 0.9 0.00 0.00 0.00 82 1018.5
20260502021003 31 339 0.0 0.9 0.00 0.00 0.00 82 1018.3